Regional Weather Roundup
Issued by NWS Cleveland, OH

Home | Current Version | Previous Version | Graphics & Text | Print | Product List | Glossary On
Versions: 1 2 3 4 5 6 7 8 9 10 11 12 13 14 15 16 17 18 19 20 21 22 23 24 25 26 27 28 29 30 31 32 33 34 35 36 37 38 39 40 41 42 43 44 45 46 47 48 49 50
000
ASUS41 KCLE 080100
RWRCLE
OHIO REGIONAL WEATHER ROUNDUP
NATIONAL WEATHER SERVICE WILMINGTON, OH
900 PM EDT TUE JUL 07 2015

NOTE: "FAIR" INDICATES FEW OR NO CLOUDS BELOW 12,000 FEET WITH NO
SIGNIFICANT WEATHER AND/OR OBSTRUCTIONS TO VISIBILITY.

OHZ001>008-015>018-024>027-034-035-043-044-080200-
   NORTHWEST OHIO

CITY           SKY/WX    TMP DP  RH WIND       PRES   REMARKS
DEFIANCE       CLOUDY    68  62  81 N5        29.98R
FINDLAY        CLOUDY    67  64  90 N9        29.96R
TOLEDO EXPRESS LGT RAIN  64  62  93 N7        29.98R FOG
TOLEDO EXEC    CLOUDY    67  60  78 N10       29.98R
LIMA           CLOUDY    66  65  96 N10       29.96R
$$

OHZ009>014-019>023-028>033-038-089-080200-
   NORTHEAST OHIO

CITY           SKY/WX    TMP DP  RH WIND       PRES   REMARKS
CLE-HOPKINS    CLOUDY    66  63  90 N9        29.97R
CLE-LAKEFRONT  CLOUDY    67  62  84 N16       29.94R
CUY CO. ARPT   LGT RAIN  66  64  94 N10G18    29.95R
LORAIN-ELYRIA  CLOUDY    65  32  29 NE10      29.97R
ASHTABULA      CLOUDY    68  66  93 NW13      29.95R
AKRON-CANTON   CLOUDY    71  68  90 SW3       29.96R
WOOSTER        NOT AVBL
MANSFIELD      CLOUDY    71  70  96 CALM      29.96S
YOUNGSTOWN     CLOUDY    69  67  93 SW6       29.95S
$$

OHZ042-051>053-060>062-070>072-077>081-080200-
  SOUTHWEST OHIO

CITY           SKY/WX    TMP DP  RH WIND       PRES   REMARKS
CINC-COVINGTON CLOUDY    72  70  93 SW6       29.97S
CINC-LUNKEN    LGT RAIN  73  71  93 SW13      29.96S
HAMILTON       CLOUDY    73  71  93 SW8       29.95S
DAYTON         LGT RAIN  72  70  94 NW3       29.94F FOG
WRIGHT-PAT AFB NOT AVBL
DAYTON GENERAL LGT RAIN  72  70  93 SW13      29.93S FOG
WILMINGTON     LGT RAIN  72  68  87 SW14      29.95F
$$

OHZ036-037-039>041-045>050-054>059-063>069-073>076-082>088-080200-
  CENTRAL AND SOUTHEAST OHIO

CITY           SKY/WX    TMP DP  RH WIND       PRES   REMARKS
COLUMBUS       CLOUDY    73  71  93 W5        29.95R
OSU AIRPORT    CLOUDY    72  69  90 W6        29.95R
BOLTON FIELD   NOT AVBL
RICKENBACK AFB NOT AVBL
NEWARK         LGT RAIN  74  71  91 SW12      29.95R
MARION         CLOUDY    73  70  90 CALM      29.94S
LANCASTER      CLOUDY    76  70  82 SW12      29.96S
ZANESVILLE     CLOUDY    75  70  84 SW6       29.96R
NEW PHILLY     LGT RAIN  71  71 100 CALM      29.96S
$$



USA.gov is the U.S. government's official web portal to all federal, state and local government web resources and services.